Dickinson, ND

1:33 AM MDT on September 24, 2017 (GMT -0600)
Dickinson Municipal

Weather History for KDIK - August, 2014

Change the Weather History Date:

Monday, August 11, 2014

  Actual Average Record
Temperature  
Mean Temperature 66 °F 70 °F  
Max Temperature 80 °F 85 °F 102 °F (2000)
Min Temperature 51 °F 55 °F 37 °F (1924)
Degree Days  
Heating Degree Days 0 1  
Month to date heating degree days 2 11  
Since 1 June heating degree days 216 182  
Since 1 July heating degree days 51 45  
Cooling Degree Days 1 6  
Month to date cooling degree days 28 66  
Year to date cooling degree days 165 295  
Since 1 June cooling degree days 135 285  
Growing Degree Days 16 (Base 50)    
Moisture  
Dew Point 51 °F    
Average Humidity 62    
Maximum Humidity 89    
Minimum Humidity 35    
Precipitation  
Precipitation 0.00 in 0.05 in 2.16 in (1954)
Month to date precipitation 2.48 0.56  
Year to date precipitation 15.46 11.31  
Sea Level Pressure  
Sea Level Pressure 30.21 in    
Wind  
Wind Speed 6 mph (SSE)    
Max Wind Speed 14 mph    
Max Gust Speed 18 mph    
Visibility 10 miles    
Events      
T = Trace of Precipitation, MM = Missing Value Source: NWS Daily Summary

Daily Weather History Graph

Daily Weather History Graph

Search for Another Location

Airport or City:

Trip Planner

Search our weather history database for the weather conditions in past years. The results will help you decide how hot, cold, wet, or windy it might be!

Date:

Astronomy

Aug. 11, 2014 Rise Set
Actual Time 5:43 AM MDT 8:08 PM MDT
Civil Twilight 5:10 AM MDT 8:41 PM MDT
Nautical Twilight 4:27 AM MDT 9:23 PM MDT
Astronomical Twilight 3:39 AM MDT 10:11 PM MDT
Moon 8:27 PM MDT (8/11) 6:59 AM MDT (8/11)
Length of Visible Light 15h 31m
Length of Day
14h 24m
Full, 98% of the Moon is Illuminated
Aug 11
Full
Aug 17
Last Quarter
Aug 25
New
Sep 2
First Quarter
Sep 8
Full

Hourly Weather History & Observations

Time (MDT) Temp. Dew Point Humidity Pressure Visibility Wind Dir Wind Speed Gust Speed Precip Events Conditions
12:56 AM 52.0 °F 48.0 °F 86% 30.24 in 10.0 mi South 4.6 mph - N/A   Clear
1:56 AM 53.1 °F 48.9 °F 86% 30.23 in 10.0 mi South 6.9 mph - N/A   Clear
2:56 AM 51.1 °F 48.0 °F 89% 30.23 in 10.0 mi South 6.9 mph - N/A   Clear
3:56 AM 51.1 °F 48.0 °F 89% 30.23 in 10.0 mi South 6.9 mph - N/A   Clear
4:56 AM 53.1 °F 46.9 °F 80% 30.23 in 10.0 mi Calm Calm - N/A   Clear
5:56 AM 52.0 °F 46.9 °F 83% 30.25 in 10.0 mi South 3.5 mph - N/A   Clear
6:56 AM 55.9 °F 51.1 °F 84% 30.26 in 10.0 mi South 4.6 mph - N/A   Clear
7:56 AM 61.0 °F 52.0 °F 72% 30.26 in 10.0 mi SSE 4.6 mph - N/A   Clear
8:56 AM 66.9 °F 53.1 °F 61% 30.26 in 10.0 mi South 5.8 mph - N/A   Clear
9:56 AM 70.0 °F 50.0 °F 49% 30.26 in 10.0 mi Variable 4.6 mph - N/A   Clear
11:56 AM 75.0 °F 52.0 °F 44% 30.24 in 10.0 mi Calm Calm - N/A   Clear
12:56 PM 75.9 °F 52.0 °F 43% 30.23 in 10.0 mi East 4.6 mph - N/A   Clear
1:56 PM 77.0 °F 51.1 °F 40% 30.21 in 10.0 mi SW 4.6 mph - N/A   Clear
2:56 PM 79.0 °F 52.0 °F 39% 30.19 in 10.0 mi ESE 6.9 mph - N/A   Clear
3:56 PM 79.0 °F 50.0 °F 36% 30.18 in 10.0 mi East 4.6 mph - N/A   Clear
4:56 PM 80.1 °F 50.0 °F 35% 30.17 in 10.0 mi Calm Calm - N/A   Clear
6:56 PM 75.9 °F 57.0 °F 52% 30.15 in 10.0 mi ESE 5.8 mph - N/A   Clear
7:56 PM 68.0 °F 57.0 °F 68% 30.15 in 10.0 mi ESE 8.1 mph - N/A   Clear
8:56 PM 64.9 °F 55.0 °F 70% 30.15 in 10.0 mi ESE 10.4 mph - N/A   Clear
9:56 PM 62.1 °F 54.0 °F 75% 30.15 in 10.0 mi ESE 9.2 mph - N/A   Clear
10:56 PM 63.0 °F 53.1 °F 70% 30.13 in 10.0 mi SSE 12.7 mph - N/A   Clear
11:56 PM 61.0 °F 53.1 °F 75% 30.13 in 10.0 mi SSE 9.2 mph - N/A   Clear